EXS43TL EGNT-LTBS

Flight info

Callsign EXS43TL
Flight time 3h 43m
Altitude 35000
Route GIRLI P18 GASKO Y250 OBOXA Y250 KEFTE UY250 MAMUL L603 DOLAS/N0440F370 DCT NAVPI DCT DODEN DCT NEGIX DCT DINKU DCT BESNI DCT GOMIG DCT BEDOX DCT LURID DCT VABEK UL603 OLOTA DCT RUGAS DCT RIKSO UP14 ODNOD UT491 SONUP
Aircraft B738/M-VGDW/C

Departure

Time 2026-05-07 06:10
Airport Newcastle International Airport (EGNT)

Arrival

Time 2026-05-07 09:54
Airport Dalaman International Airport (LTBS)
Time Latitude Longitude Altitude Speed Heading
2026-05-07 05:41 55.03734 -1.70670 275 ft 0 kts 184°
2026-05-07 05:58 55.03735 -1.70670 275 ft 0 kts 184°
2026-05-07 06:01 55.03739 -1.70669 275 ft 2 kts 182°
2026-05-07 06:01 55.03755 -1.70668 275 ft 2 kts 184°
2026-05-07 06:01 55.03769 -1.70666 275 ft 1 kts 183°
2026-05-07 06:02 55.03780 -1.70666 275 ft 2 kts 167°
2026-05-07 06:02 55.03794 -1.70677 275 ft 2 kts 140°
2026-05-07 06:02 55.03804 -1.70698 275 ft 2 kts 114°
2026-05-07 06:02 55.03807 -1.70716 275 ft 0 kts 96°
2026-05-07 06:03 55.03807 -1.70728 275 ft 0 kts 93°
2026-05-07 06:05 55.03807 -1.70724 275 ft 1 kts 93°
2026-05-07 06:05 55.03806 -1.70697 275 ft 3 kts 94°
2026-05-07 06:06 55.03804 -1.70651 275 ft 4 kts 94°
2026-05-07 06:06 55.03802 -1.70594 275 ft 5 kts 95°
2026-05-07 06:06 55.03798 -1.70528 275 ft 5 kts 94°
2026-05-07 06:06 55.03790 -1.70459 275 ft 6 kts 122°
2026-05-07 06:07 55.03749 -1.70427 275 ft 7 kts 178°
2026-05-07 06:07 55.03696 -1.70433 275 ft 7 kts 184°
2026-05-07 06:07 55.03640 -1.70441 275 ft 8 kts 186°
2026-05-07 06:07 55.03599 -1.70494 275 ft 7 kts 245°
2026-05-07 06:08 55.03588 -1.70593 275 ft 8 kts 254°
2026-05-07 06:08 55.03543 -1.70642 275 ft 8 kts 180°
2026-05-07 06:08 55.03490 -1.70643 275 ft 5 kts 181°
2026-05-07 06:08 55.03450 -1.70645 275 ft 6 kts 181°
2026-05-07 06:09 55.03398 -1.70646 275 ft 8 kts 175°
2026-05-07 06:09 55.03369 -1.70575 275 ft 6 kts 72°
2026-05-07 06:09 55.03430 -1.70342 275 ft 52 kts 65°
2026-05-07 06:09 55.03691 -1.69359 275 ft 119 kts 65°
2026-05-07 06:10 55.04126 -1.67717 292 ft 171 kts 66°
2026-05-07 06:10 55.04647 -1.65773 867 ft 174 kts 66°
2026-05-07 06:10 55.05160 -1.63799 1490 ft 179 kts 67°
2026-05-07 06:10 55.05700 -1.61708 1955 ft 195 kts 67°
2026-05-07 06:11 55.06229 -1.59369 2287 ft 215 kts 80°
2026-05-07 06:11 55.06232 -1.56707 3006 ft 214 kts 107°
2026-05-07 06:11 55.05532 -1.54407 3596 ft 218 kts 137°
2026-05-07 06:11 55.04178 -1.53041 4127 ft 230 kts 167°
2026-05-07 06:12 55.02522 -1.52654 4549 ft 249 kts 180°
2026-05-07 06:12 55.00751 -1.52771 5436 ft 250 kts 182°
2026-05-07 06:12 54.99004 -1.52863 6267 ft 253 kts 182°
2026-05-07 06:12 54.97245 -1.53335 6976 ft 256 kts 202°
2026-05-07 06:13 54.95703 -1.54748 7853 ft 254 kts 210°
2026-05-07 06:13 54.94119 -1.56410 8059 ft 259 kts 212°
2026-05-07 06:13 54.92604 -1.58040 8040 ft 253 kts 212°
2026-05-07 06:13 54.91082 -1.59741 8399 ft 259 kts 212°
2026-05-07 06:14 54.89562 -1.61445 9356 ft 255 kts 212°
2026-05-07 06:14 54.88056 -1.63148 10132 ft 256 kts 214°
2026-05-07 06:14 54.86498 -1.64858 10564 ft 272 kts 213°
2026-05-07 06:14 54.84792 -1.66701 10829 ft 293 kts 213°
2026-05-07 06:15 54.83019 -1.68588 11520 ft 299 kts 213°
2026-05-07 06:15 54.81195 -1.70509 12260 ft 304 kts 213°
2026-05-07 06:15 54.79373 -1.72392 13107 ft 305 kts 213°
2026-05-07 06:15 54.77537 -1.74251 13925 ft 307 kts 213°
2026-05-07 06:16 54.75655 -1.76104 14747 ft 310 kts 212°
2026-05-07 06:16 54.73718 -1.77943 15580 ft 312 kts 212°
2026-05-07 06:16 54.71740 -1.79545 16359 ft 317 kts 206°
2026-05-07 06:16 54.69601 -1.80758 17138 ft 322 kts 200°
2026-05-07 06:17 54.67397 -1.81585 17881 ft 327 kts 197°
2026-05-07 06:17 54.65115 -1.82300 18611 ft 330 kts 197°
2026-05-07 06:17 54.62838 -1.82993 19320 ft 332 kts 197°
2026-05-07 06:17 54.60547 -1.83699 20006 ft 335 kts 197°
2026-05-07 06:18 54.58230 -1.84420 20684 ft 337 kts 198°
2026-05-07 06:18 54.55897 -1.85149 21338 ft 339 kts 198°
2026-05-07 06:18 54.53579 -1.85876 21964 ft 342 kts 198°
2026-05-07 06:18 54.51194 -1.86624 22588 ft 344 kts 198°
2026-05-07 06:19 54.48836 -1.87364 23178 ft 347 kts 199°
2026-05-07 06:19 54.46433 -1.88118 23761 ft 350 kts 199°
2026-05-07 06:19 54.44033 -1.88871 24330 ft 352 kts 199°
2026-05-07 06:19 54.41610 -1.89630 24880 ft 355 kts 199°
2026-05-07 06:20 54.39150 -1.90399 25425 ft 357 kts 199°
2026-05-07 06:20 54.36668 -1.91175 25959 ft 359 kts 199°
2026-05-07 06:20 54.34172 -1.91954 26471 ft 362 kts 200°
2026-05-07 06:20 54.31703 -1.92724 26967 ft 364 kts 200°
2026-05-07 06:21 54.29209 -1.93501 27450 ft 366 kts 200°
2026-05-07 06:21 54.26619 -1.94125 27909 ft 376 kts 195°
2026-05-07 06:21 54.23971 -1.94145 28344 ft 390 kts 186°
2026-05-07 06:21 54.21220 -1.93265 28737 ft 413 kts 173°
2026-05-07 06:22 54.18497 -1.91191 29161 ft 431 kts 164°
2026-05-07 06:22 54.13221 -1.85915 29874 ft 444 kts 161°
2026-05-07 06:22 54.10561 -1.83165 30250 ft 447 kts 161°
2026-05-07 06:23 54.07865 -1.80375 30598 ft 450 kts 161°
2026-05-07 06:23 54.05151 -1.77567 30995 ft 451 kts 161°
2026-05-07 06:23 54.02475 -1.74798 31425 ft 451 kts 162°
2026-05-07 06:23 53.99771 -1.72002 31867 ft 451 kts 162°
2026-05-07 06:24 53.97073 -1.69216 32297 ft 450 kts 162°
2026-05-07 06:24 53.94381 -1.66441 32715 ft 450 kts 162°
2026-05-07 06:24 53.91700 -1.63681 33108 ft 450 kts 162°
2026-05-07 06:24 53.89000 -1.60907 33505 ft 449 kts 162°
2026-05-07 06:25 53.86335 -1.58173 33905 ft 448 kts 163°
2026-05-07 06:25 53.83611 -1.55384 34280 ft 448 kts 163°
2026-05-07 06:25 53.80948 -1.52660 34645 ft 447 kts 163°
2026-05-07 06:25 53.78276 -1.49933 34982 ft 447 kts 163°
2026-05-07 06:26 53.72880 -1.44439 35046 ft 446 kts 163°
2026-05-07 06:26 53.67529 -1.38998 35047 ft 442 kts 163°
2026-05-07 06:27 53.62139 -1.33686 35046 ft 435 kts 168°
2026-05-07 06:27 53.59417 -1.31627 35047 ft 422 kts 175°
2026-05-07 06:27 53.56636 -1.30234 35047 ft 403 kts 184°
2026-05-07 06:28 53.51125 -1.28874 35050 ft 407 kts 181°
2026-05-07 06:28 53.48368 -1.27362 35058 ft 426 kts 171°
2026-05-07 06:28 53.45672 -1.24941 35063 ft 447 kts 161°
2026-05-07 06:29 53.43163 -1.21580 35065 ft 470 kts 148°
2026-05-07 06:29 53.41092 -1.17029 35075 ft 499 kts 130°
2026-05-07 06:29 53.39579 -1.11637 35087 ft 515 kts 122°
2026-05-07 06:29 53.38294 -1.05928 35073 ft 521 kts 119°
2026-05-07 06:30 53.35888 -0.94276 35074 ft 524 kts 117°
2026-05-07 06:30 53.33582 -0.82522 35074 ft 525 kts 117°
2026-05-07 06:31 53.31315 -0.70693 35074 ft 525 kts 116°
2026-05-07 06:31 53.29086 -0.58971 35074 ft 526 kts 116°
2026-05-07 06:32 53.26844 -0.47183 35074 ft 526 kts 116°
2026-05-07 06:32 53.24581 -0.35317 35074 ft 526 kts 116°
2026-05-07 06:33 53.22341 -0.23571 35073 ft 524 kts 117°
2026-05-07 06:33 53.20094 -0.11858 35074 ft 525 kts 117°
2026-05-07 06:34 53.17827 -0.00136 35074 ft 525 kts 117°
2026-05-07 06:34 53.15544 0.11582 35074 ft 525 kts 117°
2026-05-07 06:35 53.13260 0.23234 35074 ft 525 kts 117°
2026-05-07 06:35 53.10953 0.34926 35074 ft 526 kts 117°
2026-05-07 06:36 53.08631 0.46618 35074 ft 528 kts 117°
2026-05-07 06:36 53.06259 0.58487 35074 ft 531 kts 117°
2026-05-07 06:37 53.03926 0.70117 35073 ft 532 kts 117°
2026-05-07 06:37 53.01554 0.81922 35074 ft 534 kts 117°
2026-05-07 06:38 52.99149 0.93781 35074 ft 537 kts 117°
2026-05-07 06:38 52.96660 1.05605 35074 ft 537 kts 119°
2026-05-07 06:39 52.93982 1.17389 35074 ft 537 kts 119°
2026-05-07 06:39 52.91302 1.29137 35074 ft 536 kts 119°
2026-05-07 06:40 52.88637 1.40773 35100 ft 534 kts 119°
2026-05-07 06:40 52.85944 1.52468 35258 ft 536 kts 119°
2026-05-07 06:41 52.84600 1.58291 35607 ft 536 kts 119°
2026-05-07 06:41 52.83254 1.64103 35895 ft 536 kts 119°
2026-05-07 06:41 52.81904 1.69932 36209 ft 535 kts 120°
2026-05-07 06:41 52.80560 1.75740 36486 ft 535 kts 120°
2026-05-07 06:42 52.79196 1.81613 36754 ft 535 kts 120°
2026-05-07 06:42 52.77844 1.87412 37004 ft 534 kts 120°
2026-05-07 06:42 52.76487 1.93207 37107 ft 537 kts 120°
2026-05-07 06:42 52.75098 1.99117 37098 ft 536 kts 120°
2026-05-07 06:43 52.72383 2.10631 37101 ft 531 kts 120°
2026-05-07 06:43 52.69654 2.22121 37101 ft 532 kts 120°
2026-05-07 06:44 52.66888 2.33701 37101 ft 533 kts 120°
2026-05-07 06:44 52.64120 2.45230 37101 ft 533 kts 120°
2026-05-07 06:45 52.61348 2.56717 37097 ft 533 kts 120°
2026-05-07 06:45 52.58558 2.68217 37083 ft 532 kts 121°
2026-05-07 06:46 52.55748 2.79680 37061 ft 530 kts 121°
2026-05-07 06:46 52.52486 2.90683 37049 ft 520 kts 129°
2026-05-07 06:47 52.48921 3.01338 37047 ft 526 kts 128°
2026-05-07 06:47 52.45323 3.12057 37047 ft 532 kts 128°
2026-05-07 06:48 52.41677 3.22868 37046 ft 532 kts 128°
2026-05-07 06:48 52.38051 3.33570 37047 ft 531 kts 128°
2026-05-07 06:49 52.34412 3.44255 37047 ft 531 kts 128°
2026-05-07 06:49 52.30785 3.54854 37047 ft 531 kts 128°
2026-05-07 06:50 52.27112 3.65542 37047 ft 531 kts 129°
2026-05-07 06:50 52.23447 3.76202 37046 ft 529 kts 129°
2026-05-07 06:51 52.19807 3.86736 37047 ft 530 kts 129°
2026-05-07 06:51 52.16143 3.97279 37047 ft 531 kts 129°
2026-05-07 06:52 52.12494 4.07726 37047 ft 530 kts 129°
2026-05-07 06:52 52.08827 4.18177 37047 ft 530 kts 129°
2026-05-07 06:53 52.05118 4.28700 37047 ft 530 kts 129°
2026-05-07 06:53 52.01443 4.39082 37047 ft 530 kts 129°
2026-05-07 06:54 51.97722 4.49552 37047 ft 531 kts 129°
2026-05-07 06:54 51.93998 4.59988 37047 ft 531 kts 129°
2026-05-07 06:55 51.90291 4.70349 37045 ft 527 kts 130°
2026-05-07 06:55 51.86583 4.80695 37047 ft 527 kts 130°
2026-05-07 06:56 51.82879 4.90966 37047 ft 527 kts 129°
2026-05-07 06:56 51.79187 5.01154 37047 ft 525 kts 129°
2026-05-07 06:57 51.75448 5.11425 37047 ft 523 kts 129°
2026-05-07 06:57 51.71736 5.21574 37047 ft 524 kts 129°
2026-05-07 06:58 51.67995 5.31761 37047 ft 524 kts 129°
2026-05-07 06:58 51.64245 5.41934 37047 ft 524 kts 129°
2026-05-07 06:59 51.60522 5.51993 37047 ft 524 kts 129°
2026-05-07 06:59 51.56754 5.62133 37047 ft 524 kts 129°
2026-05-07 07:00 51.52998 5.72222 37047 ft 523 kts 129°
2026-05-07 07:00 51.49230 5.82315 37043 ft 523 kts 129°
2026-05-07 07:01 51.45467 5.92341 37031 ft 524 kts 129°
2026-05-07 07:01 51.41685 6.02365 37020 ft 524 kts 129°
2026-05-07 07:02 51.37862 6.12456 37020 ft 523 kts 129°
2026-05-07 07:02 51.34058 6.22457 37020 ft 523 kts 129°
2026-05-07 07:03 51.30270 6.32373 37020 ft 524 kts 129°
2026-05-07 07:03 51.26444 6.42350 37020 ft 524 kts 129°
2026-05-07 07:04 51.22627 6.52266 37020 ft 524 kts 129°
2026-05-07 07:04 51.18791 6.62192 37020 ft 524 kts 129°
2026-05-07 07:05 51.14976 6.72047 37019 ft 522 kts 130°
2026-05-07 07:05 51.11159 6.81881 37020 ft 522 kts 130°
2026-05-07 07:06 51.07330 6.91693 37020 ft 523 kts 130°
2026-05-07 07:06 51.03464 7.01550 37020 ft 524 kts 130°
2026-05-07 07:07 50.99603 7.11355 37020 ft 525 kts 128°
2026-05-07 07:07 50.95681 7.21276 37020 ft 526 kts 127°
2026-05-07 07:08 50.91785 7.31095 37020 ft 524 kts 126°
2026-05-07 07:08 50.87900 7.40848 37019 ft 521 kts 126°
2026-05-07 07:09 50.84019 7.50551 37006 ft 520 kts 126°
2026-05-07 07:09 50.80112 7.60282 36973 ft 521 kts 126°
2026-05-07 07:10 50.76224 7.69944 36969 ft 520 kts 127°
2026-05-07 07:10 50.72333 7.79595 36966 ft 519 kts 127°
2026-05-07 07:11 50.68436 7.89213 36966 ft 520 kts 127°
2026-05-07 07:11 50.64526 7.98819 36966 ft 520 kts 127°
2026-05-07 07:12 50.60581 8.08435 36965 ft 519 kts 129°
2026-05-07 07:12 50.56167 8.17437 36966 ft 516 kts 134°
2026-05-07 07:13 50.51678 8.26204 36967 ft 516 kts 134°
2026-05-07 07:13 50.47148 8.35043 36974 ft 516 kts 134°
2026-05-07 07:14 50.42639 8.43824 36985 ft 516 kts 134°
2026-05-07 07:14 50.38121 8.52600 36992 ft 516 kts 134°
2026-05-07 07:15 50.33289 8.60978 36993 ft 512 kts 139°
2026-05-07 07:15 50.28400 8.69070 36992 ft 511 kts 140°
2026-05-07 07:16 50.23515 8.77188 36993 ft 511 kts 140°
2026-05-07 07:16 50.18644 8.85270 36993 ft 512 kts 139°
2026-05-07 07:17 50.13750 8.93371 36992 ft 513 kts 139°
2026-05-07 07:17 50.08793 9.01551 36993 ft 518 kts 139°
2026-05-07 07:18 50.03799 9.09768 36993 ft 523 kts 138°
2026-05-07 07:18 49.98725 9.18093 36993 ft 525 kts 137°
2026-05-07 07:19 49.93687 9.26334 36992 ft 523 kts 137°
2026-05-07 07:19 49.88654 9.34539 36989 ft 523 kts 137°
2026-05-07 07:20 49.83610 9.42732 36978 ft 524 kts 137°
2026-05-07 07:20 49.78551 9.50926 36968 ft 524 kts 137°
2026-05-07 07:21 49.73469 9.59130 36965 ft 523 kts 138°
2026-05-07 07:21 49.68409 9.67275 36964 ft 523 kts 139°
2026-05-07 07:22 49.63390 9.75352 36964 ft 522 kts 139°
2026-05-07 07:22 49.58321 9.83471 36966 ft 523 kts 139°
2026-05-07 07:23 49.53255 9.91553 36963 ft 524 kts 139°
2026-05-07 07:23 49.48177 9.99625 36959 ft 523 kts 139°
2026-05-07 07:24 49.43100 10.07666 36955 ft 524 kts 139°
2026-05-07 07:24 49.38010 10.15702 36956 ft 523 kts 139°
2026-05-07 07:25 49.30336 10.27768 36956 ft 523 kts 139°
2026-05-07 07:26 49.25261 10.35716 36954 ft 523 kts 139°
2026-05-07 07:26 49.20091 10.43594 36954 ft 522 kts 140°
2026-05-07 07:27 49.14852 10.51352 36954 ft 522 kts 140°
2026-05-07 07:27 49.09628 10.59071 36954 ft 522 kts 140°
2026-05-07 07:28 49.04409 10.66772 36955 ft 519 kts 140°
2026-05-07 07:28 48.99245 10.74393 36970 ft 515 kts 139°
2026-05-07 07:29 48.94073 10.81994 36991 ft 513 kts 138°
2026-05-07 07:29 48.88902 10.89565 36982 ft 517 kts 137°
2026-05-07 07:30 48.83688 10.97172 36982 ft 521 kts 137°
2026-05-07 07:30 48.78421 11.04833 36992 ft 524 kts 136°
2026-05-07 07:31 48.73161 11.12459 36992 ft 525 kts 136°
2026-05-07 07:31 48.67902 11.20188 36991 ft 523 kts 133°
2026-05-07 07:32 48.63371 11.28847 36990 ft 520 kts 118°
2026-05-07 07:32 48.59890 11.38425 36993 ft 519 kts 114°
2026-05-07 07:33 48.56531 11.48140 36993 ft 519 kts 114°
2026-05-07 07:33 48.53176 11.57856 36992 ft 519 kts 114°
2026-05-07 07:34 48.49830 11.67529 36992 ft 519 kts 114°
2026-05-07 07:34 48.46456 11.77289 36993 ft 519 kts 114°
2026-05-07 07:35 48.43099 11.86954 36993 ft 519 kts 114°
2026-05-07 07:35 48.39718 11.96644 36993 ft 519 kts 114°
2026-05-07 07:36 48.36326 12.06322 36993 ft 519 kts 114°
2026-05-07 07:36 48.32941 12.15944 36993 ft 519 kts 114°
2026-05-07 07:37 48.29543 12.25567 36993 ft 519 kts 114°
2026-05-07 07:37 48.26130 12.35195 36993 ft 519 kts 114°
2026-05-07 07:38 48.22716 12.44789 36993 ft 519 kts 114°
2026-05-07 07:38 48.19313 12.54317 36993 ft 519 kts 114°
2026-05-07 07:39 48.15802 12.63856 36993 ft 521 kts 118°
2026-05-07 07:39 48.11668 12.72812 36994 ft 523 kts 127°
2026-05-07 07:40 48.07055 12.81244 36993 ft 524 kts 128°
2026-05-07 07:40 48.02384 12.89645 37020 ft 524 kts 129°
2026-05-07 07:41 47.97668 12.98014 37020 ft 524 kts 129°
2026-05-07 07:41 47.92935 13.06343 37020 ft 525 kts 128°
2026-05-07 07:42 47.88182 13.14662 37020 ft 526 kts 128°
2026-05-07 07:42 47.83397 13.22999 37019 ft 527 kts 127°
2026-05-07 07:43 47.78598 13.31329 37020 ft 527 kts 127°
2026-05-07 07:43 47.73844 13.39553 37020 ft 527 kts 127°
2026-05-07 07:44 47.69033 13.47849 37019 ft 527 kts 127°
2026-05-07 07:44 47.64204 13.56148 37020 ft 527 kts 127°
2026-05-07 07:45 47.59378 13.64416 37020 ft 527 kts 127°
2026-05-07 07:45 47.54588 13.72619 37017 ft 527 kts 128°
2026-05-07 07:46 47.49763 13.80858 37008 ft 527 kts 128°
2026-05-07 07:46 47.44927 13.89078 36998 ft 527 kts 128°
2026-05-07 07:47 47.40080 13.97287 36989 ft 527 kts 128°
2026-05-07 07:47 47.35233 14.05469 36980 ft 527 kts 128°
2026-05-07 07:48 47.30358 14.13670 36971 ft 527 kts 128°
2026-05-07 07:48 47.25505 14.21810 36966 ft 527 kts 128°
2026-05-07 07:49 47.20653 14.29921 36966 ft 527 kts 128°
2026-05-07 07:49 47.15780 14.38045 36967 ft 527 kts 128°
2026-05-07 07:50 47.10906 14.46145 36966 ft 527 kts 128°
2026-05-07 07:50 47.06007 14.54262 36966 ft 527 kts 128°
2026-05-07 07:51 47.01140 14.62302 36967 ft 527 kts 128°
2026-05-07 07:51 46.96248 14.70372 36966 ft 525 kts 128°
2026-05-07 07:52 46.91395 14.78364 36966 ft 522 kts 128°
2026-05-07 07:52 46.86559 14.86294 36966 ft 520 kts 127°
2026-05-07 07:53 46.81706 14.94224 36966 ft 521 kts 127°
2026-05-07 07:53 46.76828 15.02170 36965 ft 523 kts 126°
2026-05-07 07:54 46.71929 15.10121 36966 ft 524 kts 126°
2026-05-07 07:54 46.67023 15.18060 36966 ft 523 kts 126°
2026-05-07 07:55 46.62105 15.25994 36966 ft 524 kts 126°
2026-05-07 07:55 46.57194 15.33895 36966 ft 524 kts 126°
2026-05-07 07:56 46.52274 15.41787 36966 ft 524 kts 126°
2026-05-07 07:56 46.47351 15.49660 36966 ft 524 kts 126°
2026-05-07 07:57 46.42404 15.57549 36966 ft 524 kts 126°
2026-05-07 07:57 46.37463 15.65404 36966 ft 524 kts 127°
2026-05-07 07:58 46.32536 15.73236 36966 ft 525 kts 126°
2026-05-07 07:58 46.27591 15.81071 36966 ft 525 kts 126°
2026-05-07 07:59 46.22421 15.88734 36967 ft 527 kts 130°
2026-05-07 07:59 46.17150 15.96207 36979 ft 527 kts 130°
2026-05-07 08:00 46.11883 16.03677 36997 ft 527 kts 130°
2026-05-07 08:00 46.06603 16.11155 37019 ft 527 kts 130°
2026-05-07 08:01 46.01346 16.18587 37020 ft 527 kts 130°
2026-05-07 08:01 45.96064 16.26038 37020 ft 527 kts 130°
2026-05-07 08:02 45.90778 16.33472 37020 ft 527 kts 130°
2026-05-07 08:02 45.85510 16.40864 37020 ft 526 kts 130°
2026-05-07 08:03 45.80205 16.48288 37020 ft 527 kts 130°
2026-05-07 08:03 45.74900 16.55689 37020 ft 527 kts 130°
2026-05-07 08:04 45.69600 16.63064 37020 ft 527 kts 130°
2026-05-07 08:04 45.64301 16.70429 37020 ft 527 kts 130°
2026-05-07 08:05 45.58981 16.77810 37020 ft 528 kts 130°
2026-05-07 08:05 45.53693 16.85117 37020 ft 526 kts 131°
2026-05-07 08:06 45.48407 16.92392 37019 ft 519 kts 131°
2026-05-07 08:06 45.43176 16.99572 37020 ft 514 kts 131°
2026-05-07 08:07 45.38044 17.06596 37020 ft 510 kts 131°
2026-05-07 08:07 45.32872 17.13657 37020 ft 511 kts 131°
2026-05-07 08:08 45.27661 17.20753 37020 ft 512 kts 131°
2026-05-07 08:08 45.22472 17.27799 37020 ft 512 kts 131°
2026-05-07 08:09 45.17291 17.34815 37020 ft 511 kts 131°
2026-05-07 08:09 45.12153 17.41878 37018 ft 509 kts 127°
2026-05-07 08:10 45.07444 17.49421 37020 ft 507 kts 124°
2026-05-07 08:10 45.02772 17.56957 37021 ft 508 kts 124°
2026-05-07 08:11 44.98040 17.64521 37019 ft 506 kts 123°
2026-05-07 08:11 44.93326 17.72028 37021 ft 506 kts 124°
2026-05-07 08:12 44.88589 17.79540 37020 ft 509 kts 124°
2026-05-07 08:12 44.83828 17.87062 37019 ft 506 kts 124°
2026-05-07 08:13 44.79137 17.94435 37021 ft 505 kts 124°
2026-05-07 08:13 44.74371 18.01916 37026 ft 507 kts 124°
2026-05-07 08:14 44.69625 18.09340 37038 ft 507 kts 124°
2026-05-07 08:14 44.64873 18.16755 37045 ft 508 kts 124°
2026-05-07 08:15 44.60096 18.24184 37046 ft 507 kts 124°
2026-05-07 08:15 44.55310 18.31609 37046 ft 506 kts 124°
2026-05-07 08:16 44.50542 18.38985 37048 ft 507 kts 124°
2026-05-07 08:16 44.45792 18.46314 37047 ft 505 kts 124°
2026-05-07 08:17 44.41019 18.53657 37046 ft 505 kts 124°
2026-05-07 08:17 44.36270 18.60948 37047 ft 505 kts 124°
2026-05-07 08:18 44.31484 18.68286 37049 ft 510 kts 125°
2026-05-07 08:18 44.26675 18.75652 37047 ft 510 kts 126°
2026-05-07 08:19 44.21869 18.82969 37046 ft 507 kts 125°
2026-05-07 08:19 44.17040 18.90311 37046 ft 507 kts 125°
2026-05-07 08:20 44.12234 18.97599 37047 ft 508 kts 126°
2026-05-07 08:20 44.07461 19.04809 37045 ft 499 kts 127°
2026-05-07 08:21 44.02767 19.11881 37047 ft 489 kts 129°
2026-05-07 08:21 43.98153 19.18818 37047 ft 479 kts 130°
2026-05-07 08:22 43.93641 19.25588 37048 ft 473 kts 130°
2026-05-07 08:22 43.89095 19.32395 37047 ft 476 kts 130°
2026-05-07 08:23 43.84570 19.39153 37047 ft 476 kts 130°
2026-05-07 08:23 43.80013 19.45941 37047 ft 476 kts 130°
2026-05-07 08:24 43.75480 19.52677 37055 ft 476 kts 130°
2026-05-07 08:24 43.70913 19.59446 37062 ft 476 kts 130°
2026-05-07 08:25 43.66364 19.66172 37070 ft 476 kts 131°
2026-05-07 08:25 43.61825 19.72877 37074 ft 476 kts 131°
2026-05-07 08:26 43.54988 19.82941 37074 ft 476 kts 131°
2026-05-07 08:26 43.50399 19.89673 37074 ft 476 kts 131°
2026-05-07 08:27 43.45848 19.96332 37074 ft 476 kts 131°
2026-05-07 08:27 43.41286 20.02991 37074 ft 476 kts 131°
2026-05-07 08:28 43.36689 20.09684 37074 ft 476 kts 131°
2026-05-07 08:28 43.32139 20.16293 37074 ft 476 kts 131°
2026-05-07 08:29 43.27528 20.22974 37074 ft 476 kts 131°
2026-05-07 08:29 43.22960 20.29578 37074 ft 476 kts 131°
2026-05-07 08:30 43.18370 20.36198 37076 ft 476 kts 131°
2026-05-07 08:30 43.13769 20.42820 37100 ft 476 kts 131°
2026-05-07 08:31 43.09191 20.49392 37123 ft 476 kts 131°
2026-05-07 08:31 43.04577 20.56001 37146 ft 476 kts 131°
2026-05-07 08:32 42.99934 20.62621 37155 ft 477 kts 132°
2026-05-07 08:32 42.95137 20.68954 37154 ft 474 kts 134°
2026-05-07 08:33 42.90367 20.75156 37155 ft 474 kts 134°
2026-05-07 08:33 42.85577 20.81383 37155 ft 471 kts 133°
2026-05-07 08:34 42.80799 20.87591 37155 ft 472 kts 134°
2026-05-07 08:34 42.76037 20.93766 37155 ft 473 kts 135°
2026-05-07 08:35 42.71238 20.99976 37155 ft 471 kts 136°
2026-05-07 08:35 42.66518 21.06070 37154 ft 465 kts 137°
2026-05-07 08:36 42.61825 21.12116 37155 ft 459 kts 137°
2026-05-07 08:36 42.57173 21.18100 37155 ft 458 kts 137°
2026-05-07 08:37 42.52486 21.24114 37155 ft 460 kts 137°
2026-05-07 08:37 42.47807 21.30100 37155 ft 460 kts 138°
2026-05-07 08:38 42.43135 21.36073 37155 ft 460 kts 137°
2026-05-07 08:38 42.38425 21.42081 37154 ft 461 kts 137°
2026-05-07 08:39 42.33773 21.48002 37155 ft 458 kts 137°
2026-05-07 08:39 42.29098 21.53935 37155 ft 458 kts 137°
2026-05-07 08:40 42.24403 21.59884 37156 ft 460 kts 137°
2026-05-07 08:40 42.19785 21.65877 37154 ft 460 kts 137°
2026-05-07 08:41 42.15207 21.71981 37155 ft 458 kts 137°
2026-05-07 08:41 42.10656 21.78035 37154 ft 458 kts 137°
2026-05-07 08:42 42.06082 21.84098 37155 ft 460 kts 137°
2026-05-07 08:42 42.01507 21.90143 37155 ft 461 kts 137°
2026-05-07 08:43 41.96883 21.96237 37155 ft 460 kts 137°
2026-05-07 08:43 41.92300 22.02263 37155 ft 458 kts 137°
2026-05-07 08:44 41.87705 22.08288 37156 ft 460 kts 137°
2026-05-07 08:44 41.83085 22.14329 37154 ft 461 kts 137°
2026-05-07 08:45 41.78491 22.20331 37155 ft 460 kts 137°
2026-05-07 08:45 41.73874 22.26347 37155 ft 459 kts 137°
2026-05-07 08:46 41.69248 22.32364 37156 ft 460 kts 137°
2026-05-07 08:46 41.64630 22.38356 37155 ft 460 kts 137°
2026-05-07 08:47 41.59974 22.44382 37154 ft 460 kts 137°
2026-05-07 08:47 41.55380 22.50315 37150 ft 458 kts 137°
2026-05-07 08:48 41.50762 22.56271 37142 ft 460 kts 137°
2026-05-07 08:48 41.46125 22.62238 37132 ft 461 kts 137°
2026-05-07 08:49 41.41470 22.68221 37127 ft 459 kts 137°
2026-05-07 08:49 41.36848 22.74147 37129 ft 458 kts 137°
2026-05-07 08:50 41.32292 22.80109 37126 ft 460 kts 134°
2026-05-07 08:50 41.28048 22.86610 37126 ft 461 kts 132°
2026-05-07 08:51 41.23881 22.93095 37129 ft 461 kts 132°
2026-05-07 08:51 41.19693 22.99578 37128 ft 461 kts 133°
2026-05-07 08:52 41.15461 23.06104 37127 ft 459 kts 134°
2026-05-07 08:52 41.11254 23.12568 37128 ft 459 kts 133°
2026-05-07 08:53 41.07066 23.18984 37129 ft 458 kts 134°
2026-05-07 08:53 41.02866 23.25406 37127 ft 456 kts 134°
2026-05-07 08:54 40.98700 23.31760 37128 ft 453 kts 135°
2026-05-07 08:54 40.94549 23.38076 37128 ft 451 kts 135°
2026-05-07 08:55 40.90369 23.44424 37128 ft 451 kts 135°
2026-05-07 08:55 40.86211 23.50727 37128 ft 452 kts 135°
2026-05-07 08:56 40.82049 23.57019 37127 ft 452 kts 135°
2026-05-07 08:56 40.77870 23.63327 37128 ft 451 kts 135°
2026-05-07 08:57 40.73656 23.69674 37128 ft 451 kts 135°
2026-05-07 08:57 40.69479 23.75954 37128 ft 451 kts 135°
2026-05-07 08:58 40.65293 23.82233 37123 ft 451 kts 135°
2026-05-07 08:58 40.61100 23.88509 37116 ft 452 kts 135°
2026-05-07 08:59 40.56876 23.94818 37108 ft 452 kts 135°
2026-05-07 08:59 40.52668 24.01089 37101 ft 451 kts 135°
2026-05-07 09:00 40.48452 24.07360 37101 ft 451 kts 135°
2026-05-07 09:00 40.44209 24.13656 37101 ft 451 kts 135°
2026-05-07 09:01 40.40008 24.19877 37101 ft 451 kts 135°
2026-05-07 09:01 40.35795 24.26105 37101 ft 451 kts 135°
2026-05-07 09:02 40.31529 24.32398 37101 ft 451 kts 135°
2026-05-07 09:02 40.27269 24.38667 37101 ft 451 kts 135°
2026-05-07 09:03 40.23018 24.44912 37101 ft 451 kts 135°
2026-05-07 09:03 40.18789 24.51111 37101 ft 451 kts 135°
2026-05-07 09:04 40.14540 24.57327 37101 ft 451 kts 135°
2026-05-07 09:04 40.10290 24.63532 37101 ft 452 kts 135°
2026-05-07 09:05 40.06054 24.69706 37101 ft 451 kts 136°
2026-05-07 09:05 40.01791 24.75906 37101 ft 451 kts 136°
2026-05-07 09:06 39.97538 24.82080 37101 ft 451 kts 136°
2026-05-07 09:06 39.93262 24.88273 37101 ft 451 kts 136°
2026-05-07 09:07 39.89013 24.94414 37101 ft 451 kts 136°
2026-05-07 09:07 39.84728 25.00595 37101 ft 452 kts 136°
2026-05-07 09:08 39.80442 25.06764 37101 ft 455 kts 135°
2026-05-07 09:08 39.76119 25.12974 37101 ft 457 kts 135°
2026-05-07 09:09 39.71788 25.19184 37101 ft 458 kts 134°
2026-05-07 09:09 39.67445 25.25398 37101 ft 458 kts 134°
2026-05-07 09:10 39.63085 25.31624 37101 ft 458 kts 134°
2026-05-07 09:10 39.58710 25.37858 37101 ft 458 kts 134°
2026-05-07 09:11 39.54368 25.44033 37101 ft 458 kts 134°
2026-05-07 09:11 39.50009 25.50219 37101 ft 458 kts 134°
2026-05-07 09:12 39.45657 25.56383 37101 ft 458 kts 134°
2026-05-07 09:12 39.41305 25.62534 37101 ft 458 kts 134°
2026-05-07 09:13 39.36966 25.68655 37101 ft 458 kts 135°
2026-05-07 09:13 39.32634 25.74758 37113 ft 458 kts 135°
2026-05-07 09:14 39.28293 25.80861 37126 ft 458 kts 135°
2026-05-07 09:14 39.23913 25.87005 37140 ft 458 kts 135°
2026-05-07 09:15 39.19575 25.93076 37154 ft 458 kts 135°
2026-05-07 09:15 39.15202 25.99185 37155 ft 458 kts 135°
2026-05-07 09:16 39.10856 26.05243 37155 ft 458 kts 135°
2026-05-07 09:16 39.06490 26.11318 37155 ft 458 kts 135°
2026-05-07 09:17 39.02128 26.17374 37155 ft 458 kts 135°
2026-05-07 09:17 38.97745 26.23448 37155 ft 457 kts 135°
2026-05-07 09:18 38.93389 26.29473 37155 ft 456 kts 135°
2026-05-07 09:18 38.89001 26.35530 37155 ft 456 kts 135°
2026-05-07 09:19 38.84975 26.41937 37154 ft 459 kts 123°
2026-05-07 09:19 38.83512 26.45621 37149 ft 461 kts 110°
2026-05-07 09:19 38.82679 26.49608 37165 ft 463 kts 102°
2026-05-07 09:20 38.81571 26.57875 37154 ft 465 kts 99°
2026-05-07 09:20 38.80539 26.66160 37154 ft 464 kts 100°
2026-05-07 09:21 38.79514 26.74390 37155 ft 464 kts 100°
2026-05-07 09:21 38.78483 26.82640 37155 ft 464 kts 100°
2026-05-07 09:22 38.77399 26.90826 37153 ft 464 kts 104°
2026-05-07 09:22 38.75214 26.98600 37149 ft 459 kts 123°
2026-05-07 09:23 38.71567 27.05344 37155 ft 457 kts 129°
2026-05-07 09:23 38.67731 27.11886 37154 ft 455 kts 130°
2026-05-07 09:24 38.63880 27.18423 37155 ft 455 kts 130°
2026-05-07 09:24 38.60030 27.24942 37155 ft 455 kts 130°
2026-05-07 09:25 38.56191 27.31430 37154 ft 455 kts 130°
2026-05-07 09:25 38.52326 27.37947 37155 ft 455 kts 130°
2026-05-07 09:26 38.48492 27.44401 37155 ft 455 kts 130°
2026-05-07 09:26 38.44624 27.50901 37155 ft 455 kts 130°
2026-05-07 09:27 38.40780 27.57346 37155 ft 455 kts 130°
2026-05-07 09:28 38.34933 27.67128 37155 ft 455 kts 130°
2026-05-07 09:28 38.31090 27.73544 37155 ft 455 kts 130°
2026-05-07 09:29 38.26976 27.79703 37155 ft 452 kts 138°
2026-05-07 09:29 38.22151 27.84864 37157 ft 447 kts 147°
2026-05-07 09:30 38.17110 27.89496 37155 ft 447 kts 148°
2026-05-07 09:30 38.12015 27.94109 37155 ft 447 kts 148°
2026-05-07 09:31 38.06932 27.98683 36822 ft 439 kts 148°
2026-05-07 09:31 38.05247 28.00196 36327 ft 436 kts 148°
2026-05-07 09:31 38.01842 28.03245 35382 ft 428 kts 148°
2026-05-07 09:31 37.99366 28.05458 34726 ft 432 kts 148°
2026-05-07 09:32 37.96896 28.07658 34052 ft 437 kts 148°
2026-05-07 09:32 37.94410 28.09874 33345 ft 432 kts 148°
2026-05-07 09:32 37.91948 28.12065 32659 ft 438 kts 148°
2026-05-07 09:32 37.89431 28.14301 31932 ft 439 kts 148°
2026-05-07 09:33 37.86929 28.16526 31344 ft 429 kts 148°
2026-05-07 09:33 37.84504 28.18680 30860 ft 425 kts 148°
2026-05-07 09:33 37.82052 28.20851 30301 ft 431 kts 148°
2026-05-07 09:33 37.79604 28.23021 29735 ft 422 kts 148°
2026-05-07 09:34 37.77224 28.25129 29199 ft 412 kts 148°
2026-05-07 09:34 37.74856 28.27223 28677 ft 417 kts 148°
2026-05-07 09:34 37.72456 28.29342 28123 ft 414 kts 148°
2026-05-07 09:34 37.70116 28.31409 27580 ft 405 kts 148°
2026-05-07 09:35 37.67776 28.33475 27056 ft 404 kts 148°
2026-05-07 09:35 37.65459 28.35514 26526 ft 406 kts 148°
2026-05-07 09:35 37.63168 28.37533 25984 ft 397 kts 148°
2026-05-07 09:35 37.60902 28.39529 25465 ft 390 kts 148°
2026-05-07 09:36 37.58628 28.41526 24959 ft 397 kts 148°
2026-05-07 09:36 37.56366 28.43514 24414 ft 389 kts 148°
2026-05-07 09:36 37.54166 28.45448 23901 ft 380 kts 148°
2026-05-07 09:36 37.51939 28.47358 23401 ft 386 kts 150°
2026-05-07 09:37 37.49633 28.49022 22881 ft 377 kts 156°
2026-05-07 09:37 37.47236 28.50318 22376 ft 365 kts 164°
2026-05-07 09:37 37.44782 28.51242 21898 ft 371 kts 168°
2026-05-07 09:37 37.42284 28.52061 21370 ft 364 kts 168°
2026-05-07 09:38 37.39829 28.52842 20869 ft 355 kts 169°
2026-05-07 09:38 37.37396 28.53606 20394 ft 362 kts 169°
2026-05-07 09:38 37.34943 28.54373 19878 ft 355 kts 169°
2026-05-07 09:38 37.32544 28.55125 19391 ft 348 kts 169°
2026-05-07 09:39 37.30171 28.55863 18925 ft 354 kts 169°
2026-05-07 09:39 37.27770 28.56611 18413 ft 346 kts 169°
2026-05-07 09:39 37.25445 28.57335 17944 ft 342 kts 169°
2026-05-07 09:39 37.23081 28.58068 17470 ft 346 kts 168°
2026-05-07 09:40 37.20766 28.58788 16973 ft 337 kts 168°
2026-05-07 09:40 37.18480 28.59498 16516 ft 339 kts 168°
2026-05-07 09:40 37.16218 28.60380 16058 ft 338 kts 158°
2026-05-07 09:40 37.14247 28.61952 15697 ft 329 kts 139°
2026-05-07 09:41 37.12898 28.64215 15495 ft 317 kts 114°
2026-05-07 09:41 37.12439 28.66916 15092 ft 311 kts 91°
2026-05-07 09:41 37.12580 28.69619 14715 ft 311 kts 83°
2026-05-07 09:41 37.12921 28.72378 14332 ft 311 kts 81°
2026-05-07 09:42 37.13292 28.75024 13954 ft 303 kts 80°
2026-05-07 09:42 37.13670 28.77672 13612 ft 309 kts 80°
2026-05-07 09:42 37.14043 28.80307 13241 ft 303 kts 80°
2026-05-07 09:42 37.14409 28.82910 12890 ft 300 kts 81°
2026-05-07 09:43 37.14782 28.85568 12444 ft 305 kts 81°
2026-05-07 09:43 37.15150 28.88204 12002 ft 299 kts 81°
2026-05-07 09:43 37.15505 28.90745 11651 ft 291 kts 82°
2026-05-07 09:43 37.15699 28.93285 11311 ft 294 kts 96°
2026-05-07 09:44 37.15252 28.95780 10976 ft 282 kts 120°
2026-05-07 09:44 37.14156 28.97756 10644 ft 275 kts 136°
2026-05-07 09:44 37.12776 28.99386 10294 ft 265 kts 142°
2026-05-07 09:44 37.11348 29.00896 9983 ft 271 kts 143°
2026-05-07 09:45 37.09904 29.02443 9624 ft 263 kts 142°
2026-05-07 09:45 37.08499 29.03965 9318 ft 265 kts 145°
2026-05-07 09:45 37.06944 29.05109 9022 ft 251 kts 164°
2026-05-07 09:45 37.05259 29.05401 8948 ft 235 kts 188°
2026-05-07 09:46 37.03684 29.04859 8476 ft 236 kts 206°
2026-05-07 09:46 37.02236 29.03836 7719 ft 246 kts 214°
2026-05-07 09:46 37.00760 29.02633 7037 ft 252 kts 214°
2026-05-07 09:46 36.99279 29.01465 6579 ft 248 kts 213°
2026-05-07 09:47 36.97833 29.00372 6424 ft 232 kts 212°
2026-05-07 09:47 36.96454 28.99350 6022 ft 229 kts 212°
2026-05-07 09:47 36.95081 28.98341 5693 ft 222 kts 212°
2026-05-07 09:47 36.93821 28.97267 5470 ft 210 kts 220°
2026-05-07 09:48 36.92706 28.96122 5246 ft 199 kts 220°
2026-05-07 09:48 36.91627 28.95011 4830 ft 198 kts 220°
2026-05-07 09:48 36.90576 28.93911 4511 ft 192 kts 221°
2026-05-07 09:48 36.89548 28.92824 4239 ft 185 kts 221°
2026-05-07 09:49 36.88565 28.91781 4051 ft 183 kts 221°
2026-05-07 09:49 36.87610 28.90767 3792 ft 173 kts 221°
2026-05-07 09:49 36.86713 28.89816 3594 ft 161 kts 220°
2026-05-07 09:49 36.85822 28.88930 3419 ft 161 kts 212°
2026-05-07 09:50 36.84819 28.88227 3223 ft 162 kts 213°
2026-05-07 09:50 36.83883 28.87475 2924 ft 155 kts 213°
2026-05-07 09:50 36.82960 28.86757 2692 ft 154 kts 212°
2026-05-07 09:50 36.82005 28.86051 2472 ft 154 kts 211°
2026-05-07 09:51 36.81057 28.85363 2200 ft 155 kts 211°
2026-05-07 09:51 36.80122 28.84684 1942 ft 153 kts 211°
2026-05-07 09:51 36.79195 28.84007 1718 ft 153 kts 211°
2026-05-07 09:51 36.78268 28.83330 1547 ft 144 kts 211°
2026-05-07 09:52 36.77417 28.82694 1361 ft 140 kts 211°
2026-05-07 09:52 36.76562 28.82048 1111 ft 139 kts 211°
2026-05-07 09:52 36.75734 28.81403 843 ft 138 kts 213°
2026-05-07 09:52 36.74915 28.80751 603 ft 138 kts 212°
2026-05-07 09:53 36.74046 28.80198 382 ft 137 kts 201°
2026-05-07 09:53 36.73119 28.79867 197 ft 136 kts 196°
2026-05-07 09:53 36.72179 28.79549 41 ft 134 kts 197°
2026-05-07 09:53 36.71428 28.79291 28 ft 71 kts 195°
2026-05-07 09:54 36.71063 28.79167 28 ft 44 kts 195°
2026-05-07 09:54 36.70823 28.79084 28 ft 27 kts 197°
2026-05-07 09:54 36.70688 28.79005 28 ft 16 kts 218°
2026-05-07 09:54 36.70612 28.78925 28 ft 12 kts 224°
2026-05-07 09:55 36.70572 28.78859 28 ft 7 kts 262°
2026-05-07 09:55 36.70600 28.78801 28 ft 7 kts 354°
2026-05-07 09:55 36.70649 28.78815 28 ft 7 kts 17°
2026-05-07 09:55 36.70703 28.78834 28 ft 9 kts 15°
2026-05-07 09:56 36.70777 28.78860 28 ft 12 kts 15°
2026-05-07 09:56 36.70874 28.78892 28 ft 15 kts 14°
2026-05-07 09:56 36.70988 28.78931 28 ft 17 kts 15°
2026-05-07 09:56 36.71117 28.78974 28 ft 19 kts 14°
2026-05-07 09:57 36.71240 28.79015 28 ft 16 kts 15°
2026-05-07 09:57 36.71349 28.79053 28 ft 16 kts 16°
2026-05-07 09:57 36.71466 28.79093 28 ft 17 kts 15°
2026-05-07 09:57 36.71591 28.79135 28 ft 19 kts 15°
2026-05-07 09:58 36.71730 28.79182 28 ft 21 kts 15°
2026-05-07 09:58 36.71865 28.79227 28 ft 18 kts 15°
2026-05-07 09:58 36.71992 28.79271 28 ft 18 kts 15°
2026-05-07 09:58 36.72121 28.79315 28 ft 17 kts 16°
2026-05-07 09:59 36.72219 28.79348 28 ft 11 kts 13°
2026-05-07 09:59 36.72272 28.79330 28 ft 6 kts 304°
2026-05-07 09:59 36.72290 28.79264 28 ft 8 kts 284°
2026-05-07 09:59 36.72301 28.79187 28 ft 7 kts 259°
2026-05-07 10:00 36.72272 28.79151 28 ft 5 kts 210°
2026-05-07 10:00 36.72265 28.79110 28 ft 6 kts 283°
2026-05-07 10:00 36.72271 28.79080 28 ft 1 kts 286°
2026-05-07 10:00 36.72274 28.79069 28 ft 0 kts 286°